{"data":{"norad_id":59349,"intl_designator":"2024-060B","name":"STARLINK-31532","alt_names":[],"object_type":"PAYLOAD","status":"ACTIVE","operator":null,"country":"US","launch_date":"2024-03-31","launch_site_code":"AFETR","launch_vehicle":null,"mission":null,"orbit_class":"UNKNOWN","rcs_meters":null,"size_class":null,"mass_kg":null,"dimensions":null,"purposes":["comms"],"wikipedia_slug":null,"has_3d_model":false,"image_url":null,"decayed_at":null,"tle_current":{"epoch":"2026-05-25T03:09:57.875040Z","epoch_age_seconds":60897,"freshness":"FRESH","line1":"1 59349U 24060B   26145.13191985  .00002211  00000+0  89850-4 0  9996","line2":"2 59349  43.0018 188.1556 0001362 269.0289  91.0406 15.27573810121801","mean_motion":15.2757381,"eccentricity":0.0001362,"inclination_deg":43.0018,"raan_deg":188.1556,"arg_perigee_deg":269.0289,"mean_anomaly_deg":91.0406,"bstar":8.985e-5,"rev_number":12180,"period_min":94.267130699236,"perigee_km":482.13313511831,"apogee_km":484.00212725985,"semimajor_km":6861.2046311891,"source":"CELESTRAK","updated_at":"2026-05-25T13:38:18.908316Z"}}}